sat.trackr.live / text

‹ back to catalog

STARLINK-30481

NORAD 57899 · 2023-146J

PAYLOAD ACTIVE UNKNOWN

§ Identity

Operator
Country
US
Launch date
2023-09-20
Launch site
AFETR
Launch vehicle
Mass (kg)
RCS (m²)

Purposes: comms

External: N2YO · Heavens-Above · Gunter

§ Orbital elements

Epoch: 2026-09-20T03:21:30.880800Z

Period
94.27 min
Inclination
43.0052°
Eccentricity
0.0001716
Mean motion
15.27575377 rev/d
Perigee alt
481.9 km
Apogee alt
484.2 km
Semi-major
6,861.2 km
B*
-1.3191e-5
RAAN
296.1597°
Arg perigee
268.4256°
Mean anomaly
91.6399°
Rev number
16,679

§ Raw data

STARLINK-304811 57899U 23146J   26263.13994075 -.00000625  00000+0 -13191-4 0  99942 57899  43.0052 296.1597 0001716 268.4256  91.6399 15.27575377166796

JSON: /api/v1/satellites/57899 · /tle

For live sub-satellite position, see the globe view (requires WebGL).

§ Visibility from observer

Set your observer location to see the next 7 days of passes ≥ 10°. The values pass through the URL so the page stays shareable.

No JS? Fill the form by hand. The geolocation button needs JavaScript.